Newark, OH

12:22 PM EST on February 10, 2016 (GMT -0500)
Newark Heath

Weather History for KVTA - March, 2014

Change the Weather History Date:

Tuesday, March 25, 2014

  Actual Average Record
Temperature  
Mean Temperature 28 °F -  
Max Temperature 37 °F 53 °F 85 °F (1945)
Min Temperature 21 °F 29 °F 0 °F (1974)
Degree Days  
Heating Degree Days 36    
Moisture  
Dew Point 17 °F    
Average Humidity 65    
Maximum Humidity 82    
Minimum Humidity 42    
Precipitation  
Precipitation 0.00 in - - ()
Sea Level Pressure  
Sea Level Pressure 30.01 in    
Wind  
Wind Speed 6 mph (NW)    
Max Wind Speed 26 mph    
Max Gust Speed 33 mph    
Visibility 8 miles    
Events Snow    
Averages and records for this station are not official NWS values.
T = Trace of Precipitation, MM = Missing Value Source: NWS Daily Summary

Daily Weather History Graph

Daily Weather History Graph

Search for Another Location

Airport or City:

Trip Planner

Search our weather history database for the weather conditions in past years. The results will help you decide how hot, cold, wet, or windy it might be!

Date:

Astronomy

Mar. 25, 2014 Rise Set
Actual Time 7:25 AM EDT 7:47 PM EDT
Civil Twilight 6:58 AM EDT 8:14 PM EDT
Nautical Twilight 6:26 AM EDT 8:46 PM EDT
Astronomical Twilight 5:53 AM EDT 9:18 PM EDT
Moon 3:45 AM EDT (3/25) 2:16 PM EDT (3/25)
Length of Visible Light 13h 16m
Length of Day
12h 21m
Waning Crescent, 32% of the Moon is Illuminated
Mar 25
Waning Crescent
Mar 30
New
Apr 7
First Quarter
Apr 15
Full
Apr 22
Last Quarter

Hourly Weather History & Observations

Time (EDT) Temp. Windchill Dew Point Humidity Pressure Visibility Wind Dir Wind Speed Gust Speed Precip Events Conditions
12:54 AM 24.1 °F - 15.1 °F 69% 30.11 in 10.0 mi Calm Calm - N/A   Clear
1:54 AM 25.0 °F - 14.0 °F 63% 30.09 in 10.0 mi Calm Calm - N/A   Clear
2:54 AM 24.1 °F - 17.1 °F 75% 30.08 in 10.0 mi Calm Calm - N/A   Clear
3:54 AM 25.0 °F - 19.0 °F 78% 30.06 in 10.0 mi Calm Calm - N/A   Clear
4:54 AM 24.1 °F - 18.0 °F 77% 30.04 in 10.0 mi Calm Calm - N/A   Clear
5:54 AM 23.0 °F - 17.1 °F 78% 30.03 in 10.0 mi Calm Calm - N/A   Scattered Clouds
6:54 AM 21.9 °F - 16.0 °F 78% 30.02 in 10.0 mi Calm Calm - N/A   Overcast
7:54 AM 21.9 °F - 16.0 °F 78% 30.01 in 10.0 mi Calm Calm - N/A   Overcast
8:54 AM 25.0 °F - 17.1 °F 72% 30.01 in 10.0 mi Calm Calm - N/A   Scattered Clouds
9:54 AM 28.9 °F - 16.0 °F 58% 30.00 in 10.0 mi Calm Calm - N/A   Overcast
10:54 AM 32.0 °F - 12.9 °F 45% 30.00 in 10.0 mi North - - N/A   Overcast
11:54 AM 33.1 °F 25.5 °F 12.9 °F 43% 29.99 in 10.0 mi South 9.2 mph - N/A   Overcast
12:54 PM 34.0 °F 28.8 °F 14.0 °F 44% 29.98 in 10.0 mi WNW 5.8 mph - N/A   Overcast
1:54 PM 35.1 °F 31.0 °F 14.0 °F 42% 29.96 in 10.0 mi Variable 4.6 mph - N/A   Overcast
2:54 PM 36.0 °F 29.6 °F 15.1 °F 43% 29.94 in 10.0 mi WSW 8.1 mph - N/A   Overcast
3:54 PM 36.0 °F 27.5 °F 16.0 °F 44% 29.93 in 10.0 mi WNW 12.7 mph - N/A   Mostly Cloudy
4:35 PM 33.1 °F 19.8 °F 21.0 °F 61% 29.93 in 2.5 mi NW 26.5 mph 33.4 mph 0.00 in Snow Light Snow
4:39 PM 30.0 °F 17.2 °F 23.0 °F 75% 29.94 in 0.8 mi NW 20.7 mph 33.4 mph 0.00 in Snow Light Snow
4:45 PM 28.9 °F 16.5 °F 23.0 °F 78% 29.95 in 0.2 mi NW 18.4 mph 28.8 mph 0.00 in Snow Heavy Snow
4:54 PM 28.0 °F 15.7 °F 23.0 °F 81% 29.98 in 0.5 mi NNW 17.3 mph 25.3 mph 0.00 in Snow Snow
5:24 PM 28.9 °F 18.2 °F 24.1 °F 82% 29.95 in 1.0 mi NNW 13.8 mph 24.2 mph 0.00 in Snow Light Snow
5:31 PM 30.0 °F 20.0 °F 24.1 °F 79% 29.95 in 3.0 mi NW 12.7 mph - 0.00 in Snow Light Snow
5:42 PM 30.0 °F 18.7 °F 21.0 °F 69% 29.96 in 10.0 mi NW 16.1 mph 21.9 mph 0.00 in   Scattered Clouds
5:54 PM 30.9 °F 20.2 °F 21.9 °F 69% 29.99 in 10.0 mi NW 15.0 mph - 0.00 in   Partly Cloudy
6:54 PM 28.0 °F 16.5 °F 21.0 °F 75% 30.03 in 3.0 mi WNW 15.0 mph - 0.00 in Snow Light Snow
7:54 PM 27.0 °F 14.3 °F 15.1 °F 61% 30.06 in 10.0 mi NW 17.3 mph 24.2 mph 0.00 in   Scattered Clouds
8:54 PM 26.1 °F 16.2 °F 15.1 °F 63% 30.08 in 10.0 mi NW 10.4 mph - N/A   Scattered Clouds
9:54 PM 25.0 °F 14.8 °F 10.9 °F 55% 30.10 in 10.0 mi NW 10.4 mph - N/A   Clear
10:54 PM 25.0 °F 14.2 °F 10.9 °F 55% 30.13 in 10.0 mi NW 11.5 mph - N/A   Mostly Cloudy
11:54 PM 23.0 °F 11.7 °F 9.0 °F 55% 30.14 in 10.0 mi WNW 11.5 mph 19.6 mph N/A   Clear